Location: Cossonay
(46.5833°N, 6.4167°E)
Time: 11:13:56
(UTC+00:00)

STARLINK-1257 - Pass Details

Date: 02 October 2020
Orbit: 549 x 550 km, 53.0° (Epoch: 21 October)

Event Time Altitude Azimuth Distance (km) Brightness Sun altitude
Exits shadow 04:55:13 - 230° (SW) 2,319 6.3 -7.6°
Reaches altitude 10° 04:56:28 10° 229° (SW) 1,816 5.8 -7.4°
Maximum altitude 05:00:34 70° 146° (SSE) 587 3.9 -6.7°
Drops below altitude 10° 05:04:42 10° 63° (ENE) 1,825 7.5 -6.0°
Sets 05:06:57 0° 61° (ENE) 2,721 8.4 -5.6°
